Regional Weather Roundup
Issued by NWS Bismarck, ND

Home | Current Version | Previous Version | Text Only | Print | Product List | Glossary On
Versions: 1 2 3 4 5 6 7 8 9 10 11 12 13 14 15 16 17 18 19 20 21 22 23 24 25 26 27 28 29 30 31 32 33 34 35 36 37 38 39 40 41 42 43 44 45 46 47 48 49 50
000
ASUS43 KBIS 211020
RWRBIS

NWR BROADCAST TEXT
NATIONAL WEATHER SERVICE BISMARCK ND
500 AM CDT SUN SEP 21 2014

NOTE: "FAIR" INDICATES FEW OR NO CLOUDS BELOW 12,000 FEET WITH NO
SIGNIFICANT WEATHER AND/OR OBSTRUCTIONS TO VISIBILITY.


CITY           SKY/WX    TMP DP  RH WIND       PRES   REMARKS
WILLISTON      CLEAR     41  35  79 SW7       30.24R
MINOT          CLEAR     50  40  68 W14       30.18R
MINOT AFB      CLEAR     46  43  89 W12       30.17R
BISMARCK       CLEAR     49  42  77 NW10      30.20R
DICKINSON      CLEAR     42  35  76 W7        30.25R
GARRISON         N/A     46  41  82 NW10      30.20R
HETTINGER ARPT CLEAR     39  32  76 NW5       30.28R
JAMESTOWN      CLEAR     50  45  83 NW9       30.12R
BEACH            N/A     39  34  81 CALM      30.29R
CARRINGTON     FAIR      45  45 100 NW7       30.16R
CROSBY         FAIR      45  41  87 NW8       30.23R
HARVEY         FAIR      45  45 100 NW8       30.15R
HAZEN          FAIR      41  37  87 S5        30.23R
LINTON         FAIR      41  41 100 SW7       30.19R
OAKES            N/A     46  46 100 NW8       30.12R
RUGBY          MIX PCPN  43  43 100 NW5       30.15R
STANLEY        FAIR      43  41  93 NW7       30.21S
TIOGA          FAIR      39  39 100 W5        30.25R
WATFORD CITY   FAIR      39  36  87 SW6       30.23R
$$

CITY           SKY/WX    TMP DP  RH WIND       PRES   REMARKS
GRAND FORKS    CLEAR     49  47  93 NW7       30.07R
GRAND FORKS AF CLEAR     51  51  99 NW9       30.08R
DEVILS LAKE    CLEAR     46  39  76 NW8       30.11R
FARGO          CLEAR     51  47  86 NW9       30.07R
CANDO          CLOUDY    48  46  93 NW7       30.13R
CAVALIER       FAIR      50  48  93 NW8       30.09R
GRAFTON        FAIR      50  50 100 NW10      30.08R
GWINNER        SUNNY     52  46  82 NW10      30.12R
LANGDON        PTSUNNY   46  45  93 NW7       30.10R
ROLLA          FAIR      50  48  93 NW10      30.14R
WALHALLA         N/A     50  50 100 NW6       30.09R
$$

CITY           SKY/WX    TMP DP  RH WIND       PRES   REMARKS
ABERDEEN       CLEAR     52  43  71 NW10      30.13R
MOBRIDGE       CLEAR     47  43  86 NW8       30.19R
BUFFALO          N/A     48  35  60 NW8       30.24R
RAPID CITY     CLEAR     49  37  63 NW10      30.32R
GLASGOW        CLEAR     43  36  76 S5        30.26S
SIDNEY         CLEAR     39  36  87 SW6       30.28S
WOLF POINT     CLEAR     39  36  89 SW7       30.28R
MILES CITY     CLEAR     45  37  73 CALM      30.29S
BAKER          CLEAR     37  32  82 CALM      30.31R
$$

CITY           SKY/WX    TMP DP  RH WIND       PRES   REMARKS
BILLINGS       CLEAR     52  40  63 N6        30.28S
GREAT FALLS    CLEAR     45  41  86 SW5       30.25F
REGINA         CLEAR     39  37  93 SW5       30.21R
ESTEVAN        CLEAR     41  41 100 NW3       30.21R
$$



USA.gov is the U.S. government's official web portal to all federal, state and local government web resources and services.